FW1856 Weather Reports


time (UTC)temp
F
wind
direction
speed
knots
gust
knots
rain 1hr
in
rain 24hr
in
rain mn
in
humidity
%
barometer
mb
20260906231144 74 229 1.7 9.6 0.00 0.00 0.00 55 1014.0
20260906230123 74 272 2.6 11.3 0.00 0.00 0.00 55 1014.1
20260906225144 72 213 4.3 13.9 0.00 0.00 0.00 57 1014.1
20260906224144 73 242 2.6 13.9 0.00 0.00 0.00 57 1014.2
20260906223123 73 302 3.5 16.5 0.00 0.00 0.00 57 1014.3
20260906222123 73 284 1.7 5.2 0.00 0.00 0.00 58 1014.3
20260906221125 73 256 2.6 11.3 0.00 0.00 0.00 60 1014.4
20260906220123 72 240 2.6 11.3 0.00 0.00 0.00 59 1014.4
20260906215123 72 299 2.6 11.3 0.00 0.00 0.00 61 1014.3
20260906214123 73 320 1.7 11.3 0.00 0.00 0.00 62 1014.5
20260906213124 73 331 3.5 12.2 0.00 0.00 0.00 64 1014.6
20260906212123 72 352 5.2 13.9 0.00 0.00 0.00 65 1014.7
20260906211124 72 324 3.5 12.2 0.00 0.00 0.00 67 1014.7
20260906210123 72 328 3.5 13.9 0.00 0.00 0.00 65 1014.8
20260906205123 71 310 4.3 15.6 0.00 0.00 0.00 65 1014.9
20260906204144 71 335 4.3 13.9 0.00 0.00 0.00 68 1015.1
20260906203123 71 355 7.0 16.5 0.00 0.00 0.00 66 1015.2
20260906202123 71 355 5.2 15.6 0.00 0.00 0.00 67 1015.3
20260906201123 70 320 3.5 11.3 0.00 0.00 0.00 68 1015.4
20260906200123 71 343 5.2 13.9 0.00 0.00 0.00 65 1015.4
20260906195124 71 340 4.3 12.2 0.00 0.00 0.00 66 1015.5
20260906194144 69 314 2.6 12.2 0.00 0.00 0.00 68 1015.7
20260906193125 69 325 2.6 12.2 0.00 0.00 0.00 71 1015.7
20260906192123 69 334 4.3 16.5 0.00 0.00 0.00 68 1015.8
20260906191123 68 318 4.3 13.9 0.00 0.00 0.00 64 1015.8
20260906190123 68 331 3.5 15.6 0.00 0.00 0.00 64 1016.0
20260906185144 68 348 3.5 13.9 0.00 0.00 0.00 63 1016.1
20260906184123 68 347 4.3 12.2 0.00 0.00 0.00 63 1016.3
20260906183123 66 313 4.3 16.5 0.00 0.00 0.00 65 1016.3
20260906182123 66 307 2.6 12.2 0.00 0.00 0.00 67 1016.4
20260906181123 66 311 2.6 16.5 0.00 0.00 0.00 67 1016.5
20260906180126 65 310 3.5 13.9 0.00 0.00 0.00 69 1016.6
20260906175123 65 330 2.6 12.2 0.00 0.00 0.00 70 1016.5
20260906174123 64 316 5.2 15.6 0.00 0.00 0.00 70 1016.6
20260906173123 64 319 4.3 18.2 0.00 0.00 0.00 70 1016.7
20260906172144 65 309 6.1 20.0 0.00 0.00 0.00 67 1016.8
20260906171123 64 314 2.6 13.9 0.00 0.00 0.00 68 1016.9
20260906170123 63 228 0.0 5.2 0.00 0.00 0.00 69 1016.9
20260906165144 63 242 0.9 5.2 0.00 0.00 0.00 69 1017.0
20260906164124 63 72 0.9 4.3 0.00 0.00 0.00 69 1017.2
20260906163123 62 84 0.9 2.6 0.00 0.00 0.00 71 1017.2
20260906162123 62 79 0.9 2.6 0.00 0.00 0.00 72 1017.1
20260906161144 62 35 0.0 2.6 0.00 0.00 0.00 72 1017.2
20260906160124 60 110 1.7 4.3 0.00 0.00 0.00 75 1017.2
20260906155123 59 107 2.6 8.7 0.00 0.00 0.00 77 1017.2
20260906154123 59 89 0.9 4.3 0.00 0.00 0.00 79 1017.2
20260906153123 58 89 1.7 4.3 0.00 0.00 0.00 80 1017.3
20260906152123 58 99 1.7 4.3 0.00 0.00 0.00 81 1017.3
20260906151144 57 93 0.9 4.3 0.00 0.00 0.00 83 1017.3
20260906150123 56 122 0.0 0.0 0.00 0.00 0.00 86 1017.3
20260906145123 55 121 0.0 0.0 0.00 0.00 0.00 88 1017.2
20260906144123 54 154 0.0 0.0 0.00 0.00 0.00 90 1017.2
20260906143123 53 152 0.0 0.0 0.00 0.00 0.00 91 1017.2
20260906142144 53 154 0.0 0.0 0.00 0.00 0.00 91 1017.1
20260906141123 52 153 0.0 0.0 0.00 0.00 0.00 92 1017.0
20260906140123 52 154 0.0 0.0 0.00 0.00 0.00 91 1017.0
20260906135124 52 154 0.0 0.0 0.00 0.00 0.00 91 1017.0
20260906134123 52 154 0.0 0.0 0.00 0.00 0.00 91 1016.9
20260906133123 52 156 0.0 0.0 0.00 0.00 0.00 91 1016.9
20260906132123 52 156 0.0 0.0 0.00 0.00 0.00 91 1016.8
20260906131123 52 156 0.0 0.0 0.00 0.00 0.00 91 1016.8
20260906130123 52 154 0.0 0.0 0.00 0.00 0.00 90 1016.9
20260906125123 52 155 0.0 0.0 0.00 0.00 0.00 90 1016.9
20260906124123 53 156 0.0 0.0 0.00 0.00 0.00 90 1016.9
20260906123123 53 154 0.0 0.0 0.00 0.00 0.00 90 1017.0
20260906122123 53 154 0.0 0.0 0.00 0.00 0.00 90 1017.0
20260906121123 53 156 0.0 0.0 0.00 0.00 0.00 90 1017.0
20260906120123 53 156 0.0 0.0 0.00 0.00 0.00 91 1017.0
20260906115123 53 155 0.0 0.0 0.00 0.00 0.00 91 1016.9
20260906114144 53 155 0.0 0.0 0.00 0.00 0.00 91 1016.8
20260906113123 53 156 0.0 0.0 0.00 0.00 0.00 90 1016.7
20260906112145 53 154 0.0 0.0 0.00 0.00 0.00 91 1016.7
20260906111123 53 156 0.0 0.0 0.00 0.00 0.00 90 1016.8
20260906110144 53 156 0.0 0.0 0.00 0.00 0.00 90 1016.8
20260906105144 54 155 0.0 0.0 0.00 0.00 0.00 90 1016.8
20260906104123 54 154 0.0 0.0 0.00 0.00 0.00 90 1016.8
20260906103144 54 156 0.0 0.0 0.00 0.00 0.00 90 1016.9
20260906102144 54 155 0.0 0.0 0.00 0.00 0.00 90 1016.9
20260906101123 54 156 0.0 0.0 0.00 0.00 0.00 89 1017.0
20260906100144 55 156 0.0 0.0 0.00 0.00 0.00 89 1017.0
20260906095123 55 156 0.0 0.0 0.00 0.00 0.00 88 1017.1
20260906094123 55 156 0.0 0.0 0.00 0.00 0.00 88 1017.1
20260906093123 55 156 0.0 0.0 0.00 0.00 0.00 87 1017.1
20260906092123 55 155 0.0 0.0 0.00 0.00 0.00 87 1017.1
20260906091124 56 154 0.0 0.0 0.00 0.00 0.00 86 1017.3
20260906090145 56 156 0.0 0.0 0.00 0.00 0.00 86 1017.4
20260906085123 56 155 0.0 0.0 0.00 0.00 0.00 86 1017.3
20260906084123 56 154 0.0 0.0 0.00 0.00 0.00 85 1017.4
20260906083123 57 156 0.0 0.0 0.00 0.00 0.00 84 1017.5
20260906082123 57 155 0.0 0.0 0.00 0.00 0.00 83 1017.5
20260906081144 57 155 0.0 0.0 0.00 0.00 0.00 82 1017.4
20260906080123 58 155 0.0 0.0 0.00 0.00 0.00 82 1017.5
20260906075144 59 88 0.0 0.0 0.00 0.00 0.00 80 1017.4
20260906074123 59 88 0.0 2.6 0.00 0.00 0.00 80 1017.3
20260906073144 59 84 0.9 5.2 0.00 0.00 0.00 79 1017.4
20260906072144 59 75 0.0 0.0 0.00 0.00 0.00 80 1017.3
20260906071123 59 75 0.0 0.0 0.00 0.00 0.00 79 1017.4
20260906070123 59 71 0.0 5.2 0.00 0.00 0.00 80 1017.4
20260906065123 59 96 0.9 4.3 0.00 0.00 0.00 81 1017.5
20260906064144 58 93 1.7 4.3 0.00 0.00 0.00 82 1017.5
20260906063123 58 92 0.0 0.0 0.00 0.00 0.00 82 1017.3
20260906062123 59 93 0.0 0.0 0.00 0.00 0.00 82 1017.4
20260906061123 59 93 0.9 2.6 0.00 0.00 0.00 81 1017.3
20260906060123 59 90 0.0 0.0 0.00 0.00 0.00 81 1017.4
20260906055122 59 92 0.0 1.7 0.00 0.00 0.00 81 1017.4
20260906054123 60 93 0.0 2.6 0.00 0.00 0.00 80 1017.3
20260906053123 61 83 0.9 4.3 0.00 0.00 0.00 79 1017.4
20260906052122 60 99 1.7 4.3 0.00 0.00 0.00 81 1017.4
20260906051144 60 100 0.0 2.6 0.00 0.00 0.00 82 1017.4
20260906050123 61 103 0.9 4.3 0.00 0.00 0.00 82 1017.5
20260906045123 61 72 0.0 2.6 0.00 0.00 0.00 81 1017.5
20260906044123 61 354 0.0 1.7 0.00 0.00 0.00 81 1017.5
20260906043144 61 356 0.0 2.6 0.00 0.00 0.00 83 1017.6
20260906042123 60 300 0.0 0.0 0.00 0.00 0.00 83 1017.6
20260906041123 61 299 0.0 0.0 0.00 0.00 0.00 82 1017.6
20260906040123 61 311 0.0 2.6 0.00 0.00 0.00 81 1017.6
20260906035144 61 313 0.9 2.6 0.00 0.00 0.00 81 1017.5
20260906034144 62 299 0.0 1.7 0.00 0.00 0.00 80 1017.5
20260906033123 62 299 0.0 1.7 0.00 0.00 0.00 79 1017.3
20260906032122 62 313 0.9 2.6 0.00 0.00 0.00 78 1017.4
20260906031123 63 204 0.0 1.7 0.00 0.00 0.00 76 1017.4
20260906030123 63 251 0.9 4.3 0.00 0.00 0.00 74 1017.3
20260906025122 64 224 0.9 4.3 0.00 0.00 0.00 72 1017.6
20260906024123 64 225 0.9 4.3 0.00 0.00 0.00 71 1017.4
20260906023123 65 314 0.0 2.6 0.00 0.00 0.00 72 1017.4
20260906022123 65 309 0.9 4.3 0.00 0.00 0.00 71 1017.4
20260906021122 66 347 2.6 7.0 0.00 0.00 0.00 69 1017.4
20260906020123 66 335 1.7 7.0 0.00 0.00 0.00 66 1017.2
20260906015122 67 300 1.7 5.2 0.00 0.00 0.00 64 1017.1
20260906014144 67 341 2.6 11.3 0.00 0.00 0.00 65 1017.1
20260906013123 67 310 2.6 5.2 0.00 0.00 0.00 63 1016.9
20260906012144 69 301 0.9 5.2 0.00 0.00 0.00 57 1016.7
20260906011123 69 218 2.6 9.6 0.00 0.00 0.00 53 1016.7
20260906010122 70 307 4.3 13.9 0.00 0.00 0.00 53 1016.6
20260906005123 70 305 3.5 13.9 0.00 0.00 0.00 54 1016.6
20260906004123 70 311 3.5 12.2 0.00 0.00 0.00 53 1016.6
20260906003123 70 318 3.5 11.3 0.00 0.00 0.00 54 1016.6
20260906002144 70 333 2.6 11.3 0.00 0.00 0.00 57 1016.6
20260906001122 70 310 4.3 16.5 0.00 0.00 0.00 56 1016.6
20260906000123 70 304 6.1 15.6 0.00 0.00 0.00 52 1016.6
20260905235144 71 323 4.3 13.9 0.00 0.00 0.00 55 1016.7
20260905234123 72 339 4.3 13.9 0.00 0.00 0.00 55 1016.7
20260905233123 72 64 1.7 9.6 0.00 0.00 0.00 53 1016.7
20260905232143 72 343 1.7 8.7 0.00 0.00 0.00 57 1016.7